A fact sheet with definitions and metadata for this dataset can be found at http://www.stateair.net/web/historical/1/4.html.,,,,,,,,,,
The U.S. Department of State Data Use Statement at http://www.stateair.net/web/historical/1/4.html applies to these and all data available from the Mission China air quality monitoring program.,,,,,,,,,,
,,,,,,,,,,
Site,Parameter,Date (LST),Year,Month,Day,Hour,Value,Unit,Duration,QC Name
Shanghai,PM2.5,1/1/2017 0:00,2017,1,1,0,42,�g/m�,1 Hr,Valid
Shanghai,PM2.5,1/1/2017 1:00,2017,1,1,1,46,�g/m�,1 Hr,Valid
Shanghai,PM2.5,1/1/2017 2:00,2017,1,1,2,56,�g/m�,1 Hr,Valid
Shanghai,PM2.5,1/1/2017 3:00,2017,1,1,3,49,�g/m�,1 Hr,Valid
Shanghai,PM2.5,1/1/2017 4:00,2017,1,1,4,51,�g/m�,1 Hr,Valid
Shanghai,PM2.5,1/1/2017 5:00,2017,1,1,5,49,�g/m�,1 Hr,Valid
Shanghai,PM2.5,1/1/2017 6:00,2017,1,1,6,43,�g/m�,1 Hr,Valid
Shanghai,PM2.5,1/1/2017 7:00,2017,1,1,7,47,�g/m�,1 Hr,Valid
Shanghai,PM2.5,1/1/2017 8:00,2017,1,1,8,52,�g/m�,1 Hr,Valid
Shanghai,PM2.5,1/1/2017 9:00,2017,1,1,9,45,�g/m�,1 Hr,Valid
Shanghai,PM2.5,1/1/2017 10:00,2017,1,1,10,44,�g/m�,1 Hr,Valid
Shanghai,PM2.5,1/1/2017 11:00,2017,1,1,11,36,�g/m�,1 Hr,Valid
Shanghai,PM2.5,1/1/2017 12:00,2017,1,1,12,25,�g/m�,1 Hr,Valid
Shanghai,PM2.5,1/1/2017 13:00,2017,1,1,13,38,�g/m�,1 Hr,Valid
Shanghai,PM2.5,1/1/2017 14:00,2017,1,1,14,30,�g/m�,1 Hr,Valid
Shanghai,PM2.5,1/1/2017 15:00,2017,1,1,15,29,�g/m�,1 Hr,Valid
Shanghai,PM2.5,1/1/2017 16:00,2017,1,1,16,30,�g/m�,1 Hr,Valid
Shanghai,PM2.5,1/1/2017 17:00,2017,1,1,17,33,�g/m�,1 Hr,Valid
Shanghai,PM2.5,1/1/2017 18:00,2017,1,1,18,34,�g/m�,1 Hr,Valid
Shanghai,PM2.5,1/1/2017 19:00,2017,1,1,19,38,�g/m�,1 Hr,Valid
Shanghai,PM2.5,1/1/2017 20:00,2017,1,1,20,40,�g/m�,1 Hr,Valid
Shanghai,PM2.5,1/1/2017 21:00,2017,1,1,21,42,�g/m�,1 Hr,Valid
Shanghai,PM2.5,1/1/2017 22:00,2017,1,1,22,36,�g/m�,1 Hr,Valid
Shanghai,PM2.5,1/1/2017 23:00,2017,1,1,23,39,�g/m�,1 Hr,Valid
Shanghai,PM2.5,1/2/2017 0:00,2017,1,2,0,41,�g/m�,1 Hr,Valid
Shanghai,PM2.5,1/2/2017 1:00,2017,1,2,1,49,�g/m�,1 Hr,Valid
Shanghai,PM2.5,1/2/2017 2:00,2017,1,2,2,40,�g/m�,1 Hr,Valid
Shanghai,PM2.5,1/2/2017 3:00,2017,1,2,3,37,�g/m�,1 Hr,Valid
Shanghai,PM2.5,1/2/2017 4:00,2017,1,2,4,41,�g/m�,1 Hr,Valid
Shanghai,PM2.5,1/2/2017 5:00,2017,1,2,5,43,�g/m�,1 Hr,Valid
Shanghai,PM2.5,1/2/2017 6:00,2017,1,2,6,49,�g/m�,1 Hr,Valid
Shanghai,PM2.5,1/2/2017 7:00,2017,1,2,7,47,�g/m�,1 Hr,Valid
Shanghai,PM2.5,1/2/2017 8:00,2017,1,2,8,73,�g/m�,1 Hr,Valid
Shanghai,PM2.5,1/2/2017 9:00,2017,1,2,9,78,�g/m�,1 Hr,Valid
Shanghai,PM2.5,1/2/2017 10:00,2017,1,2,10,88,�g/m�,1 Hr,Valid
Shanghai,PM2.5,1/2/2017 11:00,2017,1,2,11,79,�g/m�,1 Hr,Valid
Shanghai,PM2.5,1/2/2017 12:00,2017,1,2,12,103,�g/m�,1 Hr,Valid
Shanghai,PM2.5,1/2/2017 13:00,2017,1,2,13,121,�g/m�,1 Hr,Valid
Shanghai,PM2.5,1/2/2017 14:00,2017,1,2,14,120,�g/m�,1 Hr,Valid
Shanghai,PM2.5,1/2/2017 15:00,2017,1,2,15,104,�g/m�,1 Hr,Valid
Shanghai,PM2.5,1/2/2017 16:00,2017,1,2,16,105,�g/m�,1 Hr,Valid
Shanghai,PM2.5,1/2/2017 17:00,2017,1,2,17,104,�g/m�,1 Hr,Valid
Shanghai,PM2.5,1/2/2017 18:00,2017,1,2,18,102,�g/m�,1 Hr,Valid
Shanghai,PM2.5,1/2/2017 19:00,2017,1,2,19,70,�g/m�,1 Hr,Valid
Shanghai,PM2.5,1/2/2017 20:00,2017,1,2,20,71,�g/m�,1 Hr,Valid
Shanghai,PM2.5,1/2/2017 21:00,2017,1,2,21,81,�g/m�,1 Hr,Valid
Shanghai,PM2.5,1/2/2017 22:00,2017,1,2,22,74,�g/m�,1 Hr,Valid
Shanghai,PM2.5,1/2/2017 23:00,2017,1,2,23,79,�g/m�,1 Hr,Valid
Shanghai,PM2.5,1/3/2017 0:00,2017,1,3,0,78,�g/m�,1 Hr,Valid
Shanghai,PM2.5,1/3/2017 1:00,2017,1,3,1,79,�g/m�,1 Hr,Valid
Shanghai,PM2.5,1/3/2017 2:00,2017,1,3,2,108,�g/m�,1 Hr,Valid
Shanghai,PM2.5,1/3/2017 3:00,2017,1,3,3,126,�g/m�,1 Hr,Valid
Shanghai,PM2.5,1/3/2017 4:00,2017,1,3,4,145,�g/m�,1 Hr,Valid
Shanghai,PM2.5,1/3/2017 5:00,2017,1,3,5,153,�g/m�,1 Hr,Valid
Shanghai,PM2.5,1/3/2017 6:00,2017,1,3,6,153,�g/m�,1 Hr,Valid
Shanghai,PM2.5,1/3/2017 7:00,2017,1,3,7,152,�g/m�,1 Hr,Valid
Shanghai,PM2.5,1/3/2017 8:00,2017,1,3,8,144,�g/m�,1 Hr,Valid
Shanghai,PM2.5,1/3/2017 9:00,2017,1,3,9,150,�g/m�,1 Hr,Valid
Shanghai,PM2.5,1/3/2017 10:00,2017,1,3,10,162,�g/m�,1 Hr,Valid
Shanghai,PM2.5,1/3/2017 11:00,2017,1,3,11,123,�g/m�,1 Hr,Valid
Shanghai,PM2.5,1/3/2017 12:00,2017,1,3,12,110,�g/m�,1 Hr,Valid
Shanghai,PM2.5,1/3/2017 13:00,2017,1,3,13,100,�g/m�,1 Hr,Valid
Shanghai,PM2.5,1/3/2017 14:00,2017,1,3,14,91,�g/m�,1 Hr,Valid
Shanghai,PM2.5,1/3/2017 15:00,2017,1,3,15,90,�g/m�,1 Hr,Valid
Shanghai,PM2.5,1/3/2017 16:00,2017,1,3,16,82,�g/m�,1 Hr,Valid
Shanghai,PM2.5,1/3/2017 17:00,2017,1,3,17,78,�g/m�,1 Hr,Valid
Shanghai,PM2.5,1/3/2017 18:00,2017,1,3,18,80,�g/m�,1 Hr,Valid
Shanghai,PM2.5,1/3/2017 19:00,2017,1,3,19,75,�g/m�,1 Hr,Valid
Shanghai,PM2.5,1/3/2017 20:00,2017,1,3,20,73,�g/m�,1 Hr,Valid
Shanghai,PM2.5,1/3/2017 21:00,2017,1,3,21,74,�g/m�,1 Hr,Valid
Shanghai,PM2.5,1/3/2017 22:00,2017,1,3,22,74,�g/m�,1 Hr,Valid
Shanghai,PM2.5,1/3/2017 23:00,2017,1,3,23,65,�g/m�,1 Hr,Valid
Shanghai,PM2.5,1/4/2017 0:00,2017,1,4,0,73,�g/m�,1 Hr,Valid
Shanghai,PM2.5,1/4/2017 1:00,2017,1,4,1,63,�g/m�,1 Hr,Valid
Shanghai,PM2.5,1/4/2017 2:00,2017,1,4,2,60,�g/m�,1 Hr,Valid
Shanghai,PM2.5,1/4/2017 3:00,2017,1,4,3,45,�g/m�,1 Hr,Valid
Shanghai,PM2.5,1/4/2017 4:00,2017,1,4,4,47,�g/m�,1 Hr,Valid
Shanghai,PM2.5,1/4/2017 5:00,2017,1,4,5,43,�g/m�,1 Hr,Valid
Shanghai,PM2.5,1/4/2017 6:00,2017,1,4,6,48,�g/m�,1 Hr,Valid
Shanghai,PM2.5,1/4/2017 7:00,2017,1,4,7,53,�g/m�,1 Hr,Valid
Shanghai,PM2.5,1/4/2017 8:00,2017,1,4,8,60,�g/m�,1 Hr,Valid
Shanghai,PM2.5,1/4/2017 9:00,2017,1,4,9,58,�g/m�,1 Hr,Valid
Shanghai,PM2.5,1/4/2017 10:00,2017,1,4,10,59,�g/m�,1 Hr,Valid
Shanghai,PM2.5,1/4/2017 11:00,2017,1,4,11,60,�g/m�,1 Hr,Valid
Shanghai,PM2.5,1/4/2017 12:00,2017,1,4,12,47,�g/m�,1 Hr,Valid
Shanghai,PM2.5,1/4/2017 13:00,2017,1,4,13,43,�g/m�,1 Hr,Valid
Shanghai,PM2.5,1/4/2017 14:00,2017,1,4,14,61,�g/m�,1 Hr,Valid
Shanghai,PM2.5,1/4/2017 15:00,2017,1,4,15,75,�g/m�,1 Hr,Valid
Shanghai,PM2.5,1/4/2017 16:00,2017,1,4,16,73,�g/m�,1 Hr,Valid
Shanghai,PM2.5,1/4/2017 17:00,2017,1,4,17,75,�g/m�,1 Hr,Valid
Shanghai,PM2.5,1/4/2017 18:00,2017,1,4,18,63,�g/m�,1 Hr,Valid
Shanghai,PM2.5,1/4/2017 19:00,2017,1,4,19,62,�g/m�,1 Hr,Valid
Shanghai,PM2.5,1/4/2017 20:00,2017,1,4,20,69,�g/m�,1 Hr,Valid
Shanghai,PM2.5,1/4/2017 21:00,2017,1,4,21,55,�g/m�,1 Hr,Valid
Shanghai,PM2.5,1/4/2017 22:00,2017,1,4,22,65,�g/m�,1 Hr,Valid
Shanghai,PM2.5,1/4/2017 23:00,2017,1,4,23,50,�g/m�,1 Hr,Valid
Shanghai,PM2.5,1/5/2017 0:00,2017,1,5,0,50,�g/m�,1 Hr,Valid
Shanghai,PM2.5,1/5/2017 1:00,2017,1,5,1,42,�g/m�,1 Hr,Valid
Shanghai,PM2.5,1/5/2017 2:00,2017,1,5,2,43,�g/m�,1 Hr,Valid
Shanghai,PM2.5,1/5/2017 3:00,2017,1,5,3,39,�g/m�,1 Hr,Valid
Shanghai,PM2.5,1/5/2017 4:00,2017,1,5,4,30,�g/m�,1 Hr,Valid
Shanghai,PM2.5,1/5/2017 5:00,2017,1,5,5,32,�g/m�,1 Hr,Valid
Shanghai,PM2.5,1/5/2017 6:00,2017,1,5,6,35,�g/m�,1 Hr,Valid
Shanghai,PM2.5,1/5/2017 7:00,2017,1,5,7,30,�g/m�,1 Hr,Valid
Shanghai,PM2.5,1/5/2017 8:00,2017,1,5,8,31,�g/m�,1 Hr,Valid
Shanghai,PM2.5,1/5/2017 9:00,2017,1,5,9,34,�g/m�,1 Hr,Valid
Shanghai,PM2.5,1/5/2017 10:00,2017,1,5,10,26,�g/m�,1 Hr,Valid
Shanghai,PM2.5,1/5/2017 11:00,2017,1,5,11,34,�g/m�,1 Hr,Valid
Shanghai,PM2.5,1/5/2017 12:00,2017,1,5,12,29,�g/m�,1 Hr,Valid
Shanghai,PM2.5,1/5/2017 13:00,2017,1,5,13,35,�g/m�,1 Hr,Valid
Shanghai,PM2.5,1/5/2017 14:00,2017,1,5,14,32,�g/m�,1 Hr,Valid
Shanghai,PM2.5,1/5/2017 15:00,2017,1,5,15,39,�g/m�,1 Hr,Valid
Shanghai,PM2.5,1/5/2017 16:00,2017,1,5,16,43,�g/m�,1 Hr,Valid
Shanghai,PM2.5,1/5/2017 17:00,2017,1,5,17,22,�g/m�,1 Hr,Valid
Shanghai,PM2.5,1/5/2017 18:00,2017,1,5,18,24,�g/m�,1 Hr,Valid
Shanghai,PM2.5,1/5/2017 19:00,2017,1,5,19,25,�g/m�,1 Hr,Valid
Shanghai,PM2.5,1/5/2017 20:00,2017,1,5,20,19,�g/m�,1 Hr,Valid
Shanghai,PM2.5,1/5/2017 21:00,2017,1,5,21,31,�g/m�,1 Hr,Valid
Shanghai,PM2.5,1/5/2017 22:00,2017,1,5,22,26,�g/m�,1 Hr,Valid
Shanghai,PM2.5,1/5/2017 23:00,2017,1,5,23,23,�g/m�,1 Hr,Valid
Shanghai,PM2.5,1/6/2017 0:00,2017,1,6,0,25,�g/m�,1 Hr,Valid
Shanghai,PM2.5,1/6/2017 1:00,2017,1,6,1,32,�g/m�,1 Hr,Valid
Shanghai,PM2.5,1/6/2017 2:00,2017,1,6,2,32,�g/m�,1 Hr,Valid
Shanghai,PM2.5,1/6/2017 3:00,2017,1,6,3,39,�g/m�,1 Hr,Valid
Shanghai,PM2.5,1/6/2017 4:00,2017,1,6,4,36,�g/m�,1 Hr,Valid
Shanghai,PM2.5,1/6/2017 5:00,2017,1,6,5,35,�g/m�,1 Hr,Valid
Shanghai,PM2.5,1/6/2017 6:00,2017,1,6,6,26,�g/m�,1 Hr,Valid
Shanghai,PM2.5,1/6/2017 7:00,2017,1,6,7,25,�g/m�,1 Hr,Valid
Shanghai,PM2.5,1/6/2017 8:00,2017,1,6,8,34,�g/m�,1 Hr,Valid
Shanghai,PM2.5,1/6/2017 9:00,2017,1,6,9,37,�g/m�,1 Hr,Valid
Shanghai,PM2.5,1/6/2017 10:00,2017,1,6,10,37,�g/m�,1 Hr,Valid
Shanghai,PM2.5,1/6/2017 11:00,2017,1,6,11,31,�g/m�,1 Hr,Valid
Shanghai,PM2.5,1/6/2017 12:00,2017,1,6,12,24,�g/m�,1 Hr,Valid
Shanghai,PM2.5,1/6/2017 13:00,2017,1,6,13,21,�g/m�,1 Hr,Valid
Shanghai,PM2.5,1/6/2017 14:00,2017,1,6,14,22,�g/m�,1 Hr,Valid
Shanghai,PM2.5,1/6/2017 15:00,2017,1,6,15,21,�g/m�,1 Hr,Valid
Shanghai,PM2.5,1/6/2017 16:00,2017,1,6,16,24,�g/m�,1 Hr,Valid
Shanghai,PM2.5,1/6/2017 17:00,2017,1,6,17,22,�g/m�,1 Hr,Valid
Shanghai,PM2.5,1/6/2017 18:00,2017,1,6,18,23,�g/m�,1 Hr,Valid
Shanghai,PM2.5,1/6/2017 19:00,2017,1,6,19,16,�g/m�,1 Hr,Valid
Shanghai,PM2.5,1/6/2017 20:00,2017,1,6,20,19,�g/m�,1 Hr,Valid
Shanghai,PM2.5,1/6/2017 21:00,2017,1,6,21,16,�g/m�,1 Hr,Valid
Shanghai,PM2.5,1/6/2017 22:00,2017,1,6,22,16,�g/m�,1 Hr,Valid
Shanghai,PM2.5,1/6/2017 23:00,2017,1,6,23,19,�g/m�,1 Hr,Valid
Shanghai,PM2.5,1/7/2017 0:00,2017,1,7,0,4,�g/m�,1 Hr,Valid
Shanghai,PM2.5,1/7/2017 1:00,2017,1,7,1,13,�g/m�,1 Hr,Valid
Shanghai,PM2.5,1/7/2017 2:00,2017,1,7,2,17,�g/m�,1 Hr,Valid
Shanghai,PM2.5,1/7/2017 3:00,2017,1,7,3,11,�g/m�,1 Hr,Valid
Shanghai,PM2.5,1/7/2017 4:00,2017,1,7,4,10,�g/m�,1 Hr,Valid
Shanghai,PM2.5,1/7/2017 5:00,2017,1,7,5,15,�g/m�,1 Hr,Valid
Shanghai,PM2.5,1/7/2017 6:00,2017,1,7,6,16,�g/m�,1 Hr,Valid
Shanghai,PM2.5,1/7/2017 7:00,2017,1,7,7,21,�g/m�,1 Hr,Valid
Shanghai,PM2.5,1/7/2017 8:00,2017,1,7,8,16,�g/m�,1 Hr,Valid
Shanghai,PM2.5,1/7/2017 9:00,2017,1,7,9,17,�g/m�,1 Hr,Valid
Shanghai,PM2.5,1/7/2017 10:00,2017,1,7,10,13,�g/m�,1 Hr,Valid
Shanghai,PM2.5,1/7/2017 11:00,2017,1,7,11,17,�g/m�,1 Hr,Valid
Shanghai,PM2.5,1/7/2017 12:00,2017,1,7,12,19,�g/m�,1 Hr,Valid
Shanghai,PM2.5,1/7/2017 13:00,2017,1,7,13,12,�g/m�,1 Hr,Valid
Shanghai,PM2.5,1/7/2017 14:00,2017,1,7,14,12,�g/m�,1 Hr,Valid
Shanghai,PM2.5,1/7/2017 15:00,2017,1,7,15,13,�g/m�,1 Hr,Valid
Shanghai,PM2.5,1/7/2017 16:00,2017,1,7,16,24,�g/m�,1 Hr,Valid
Shanghai,PM2.5,1/7/2017 17:00,2017,1,7,17,29,�g/m�,1 Hr,Valid
Shanghai,PM2.5,1/7/2017 18:00,2017,1,7,18,32,�g/m�,1 Hr,Valid
Shanghai,PM2.5,1/7/2017 19:00,2017,1,7,19,36,�g/m�,1 Hr,Valid
Shanghai,PM2.5,1/7/2017 20:00,2017,1,7,20,40,�g/m�,1 Hr,Valid
Shanghai,PM2.5,1/7/2017 21:00,2017,1,7,21,35,�g/m�,1 Hr,Valid
Shanghai,PM2.5,1/7/2017 22:00,2017,1,7,22,48,�g/m�,1 Hr,Valid
Shanghai,PM2.5,1/7/2017 23:00,2017,1,7,23,51,�g/m�,1 Hr,Valid
Shanghai,PM2.5,1/8/2017 0:00,2017,1,8,0,48,�g/m�,1 Hr,Valid
Shanghai,PM2.5,1/8/2017 1:00,2017,1,8,1,57,�g/m�,1 Hr,Valid
Shanghai,PM2.5,1/8/2017 2:00,2017,1,8,2,62,�g/m�,1 Hr,Valid
Shanghai,PM2.5,1/8/2017 3:00,2017,1,8,3,75,�g/m�,1 Hr,Valid
Shanghai,PM2.5,1/8/2017 4:00,2017,1,8,4,76,�g/m�,1 Hr,Valid
Shanghai,PM2.5,1/8/2017 5:00,2017,1,8,5,95,�g/m�,1 Hr,Valid
Shanghai,PM2.5,1/8/2017 6:00,2017,1,8,6,94,�g/m�,1 Hr,Valid
Shanghai,PM2.5,1/8/2017 7:00,2017,1,8,7,106,�g/m�,1 Hr,Valid
Shanghai,PM2.5,1/8/2017 8:00,2017,1,8,8,115,�g/m�,1 Hr,Valid
Shanghai,PM2.5,1/8/2017 9:00,2017,1,8,9,124,�g/m�,1 Hr,Valid
Shanghai,PM2.5,1/8/2017 10:00,2017,1,8,10,124,�g/m�,1 Hr,Valid
Shanghai,PM2.5,1/8/2017 11:00,2017,1,8,11,126,�g/m�,1 Hr,Valid
Shanghai,PM2.5,1/8/2017 12:00,2017,1,8,12,118,�g/m�,1 Hr,Valid
Shanghai,PM2.5,1/8/2017 13:00,2017,1,8,13,137,�g/m�,1 Hr,Valid
Shanghai,PM2.5,1/8/2017 14:00,2017,1,8,14,126,�g/m�,1 Hr,Valid
Shanghai,PM2.5,1/8/2017 15:00,2017,1,8,15,129,�g/m�,1 Hr,Valid
Shanghai,PM2.5,1/8/2017 16:00,2017,1,8,16,100,�g/m�,1 Hr,Valid
Shanghai,PM2.5,1/8/2017 17:00,2017,1,8,17,89,�g/m�,1 Hr,Valid
Shanghai,PM2.5,1/8/2017 18:00,2017,1,8,18,65,�g/m�,1 Hr,Valid
Shanghai,PM2.5,1/8/2017 19:00,2017,1,8,19,51,�g/m�,1 Hr,Valid
Shanghai,PM2.5,1/8/2017 20:00,2017,1,8,20,45,�g/m�,1 Hr,Valid
Shanghai,PM2.5,1/8/2017 21:00,2017,1,8,21,45,�g/m�,1 Hr,Valid
Shanghai,PM2.5,1/8/2017 22:00,2017,1,8,22,35,�g/m�,1 Hr,Valid
Shanghai,PM2.5,1/8/2017 23:00,2017,1,8,23,37,�g/m�,1 Hr,Valid
Shanghai,PM2.5,1/9/2017 0:00,2017,1,9,0,52,�g/m�,1 Hr,Valid
Shanghai,PM2.5,1/9/2017 1:00,2017,1,9,1,68,�g/m�,1 Hr,Valid
Shanghai,PM2.5,1/9/2017 2:00,2017,1,9,2,64,�g/m�,1 Hr,Valid
Shanghai,PM2.5,1/9/2017 3:00,2017,1,9,3,57,�g/m�,1 Hr,Valid
Shanghai,PM2.5,1/9/2017 4:00,2017,1,9,4,68,�g/m�,1 Hr,Valid
Shanghai,PM2.5,1/9/2017 5:00,2017,1,9,5,76,�g/m�,1 Hr,Valid
Shanghai,PM2.5,1/9/2017 6:00,2017,1,9,6,76,�g/m�,1 Hr,Valid
Shanghai,PM2.5,1/9/2017 7:00,2017,1,9,7,80,�g/m�,1 Hr,Valid
Shanghai,PM2.5,1/9/2017 8:00,2017,1,9,8,79,�g/m�,1 Hr,Valid
Shanghai,PM2.5,1/9/2017 9:00,2017,1,9,9,69,�g/m�,1 Hr,Valid
Shanghai,PM2.5,1/9/2017 10:00,2017,1,9,10,79,�g/m�,1 Hr,Valid
Shanghai,PM2.5,1/9/2017 11:00,2017,1,9,11,69,�g/m�,1 Hr,Valid
Shanghai,PM2.5,1/9/2017 12:00,2017,1,9,12,71,�g/m�,1 Hr,Valid
Shanghai,PM2.5,1/9/2017 13:00,2017,1,9,13,76,�g/m�,1 Hr,Valid
Shanghai,PM2.5,1/9/2017 14:00,2017,1,9,14,85,�g/m�,1 Hr,Valid
Shanghai,PM2.5,1/9/2017 15:00,2017,1,9,15,84,�g/m�,1 Hr,Valid
Shanghai,PM2.5,1/9/2017 16:00,2017,1,9,16,89,�g/m�,1 Hr,Valid
Shanghai,PM2.5,1/9/2017 17:00,2017,1,9,17,92,�g/m�,1 Hr,Valid
Shanghai,PM2.5,1/9/2017 18:00,2017,1,9,18,99,�g/m�,1 Hr,Valid
Shanghai,PM2.5,1/9/2017 19:00,2017,1,9,19,103,�g/m�,1 Hr,Valid
Shanghai,PM2.5,1/9/2017 20:00,2017,1,9,20,81,�g/m�,1 Hr,Valid
Shanghai,PM2.5,1/9/2017 21:00,2017,1,9,21,71,�g/m�,1 Hr,Valid
Shanghai,PM2.5,1/9/2017 22:00,2017,1,9,22,84,�g/m�,1 Hr,Valid
Shanghai,PM2.5,1/9/2017 23:00,2017,1,9,23,84,�g/m�,1 Hr,Valid
Shanghai,PM2.5,1/10/2017 0:00,2017,1,10,0,93,�g/m�,1 Hr,Valid
Shanghai,PM2.5,1/10/2017 1:00,2017,1,10,1,94,�g/m�,1 Hr,Valid
Shanghai,PM2.5,1/10/2017 2:00,2017,1,10,2,97,�g/m�,1 Hr,Valid
Shanghai,PM2.5,1/10/2017 3:00,2017,1,10,3,84,�g/m�,1 Hr,Valid
Shanghai,PM2.5,1/10/2017 4:00,2017,1,10,4,81,�g/m�,1 Hr,Valid
Shanghai,PM2.5,1/10/2017 5:00,2017,1,10,5,88,�g/m�,1 Hr,Valid
Shanghai,PM2.5,1/10/2017 6:00,2017,1,10,6,80,�g/m�,1 Hr,Valid
Shanghai,PM2.5,1/10/2017 7:00,2017,1,10,7,88,�g/m�,1 Hr,Valid
Shanghai,PM2.5,1/10/2017 8:00,2017,1,10,8,96,�g/m�,1 Hr,Valid
Shanghai,PM2.5,1/10/2017 9:00,2017,1,10,9,103,�g/m�,1 Hr,Valid
Shanghai,PM2.5,1/10/2017 10:00,2017,1,10,10,110,�g/m�,1 Hr,Valid
Shanghai,PM2.5,1/10/2017 11:00,2017,1,10,11,95,�g/m�,1 Hr,Valid
Shanghai,PM2.5,1/10/2017 12:00,2017,1,10,12,100,�g/m�,1 Hr,Valid
Shanghai,PM2.5,1/10/2017 13:00,2017,1,10,13,103,�g/m�,1 Hr,Valid
Shanghai,PM2.5,1/10/2017 14:00,2017,1,10,14,100,�g/m�,1 Hr,Valid
Shanghai,PM2.5,1/10/2017 15:00,2017,1,10,15,97,�g/m�,1 Hr,Valid
Shanghai,PM2.5,1/10/2017 16:00,2017,1,10,16,87,�g/m�,1 Hr,Valid
Shanghai,PM2.5,1/10/2017 17:00,2017,1,10,17,75,�g/m�,1 Hr,Valid
Shanghai,PM2.5,1/10/2017 18:00,2017,1,10,18,85,�g/m�,1 Hr,Valid
Shanghai,PM2.5,1/10/2017 19:00,2017,1,10,19,91,�g/m�,1 Hr,Valid
Shanghai,PM2.5,1/10/2017 20:00,2017,1,10,20,82,�g/m�,1 Hr,Valid
Shanghai,PM2.5,1/10/2017 21:00,2017,1,10,21,76,�g/m�,1 Hr,Valid
Shanghai,PM2.5,1/10/2017 22:00,2017,1,10,22,68,�g/m�,1 Hr,Valid
Shanghai,PM2.5,1/10/2017 23:00,2017,1,10,23,57,�g/m�,1 Hr,Valid
Shanghai,PM2.5,1/11/2017 0:00,2017,1,11,0,41,�g/m�,1 Hr,Valid
Shanghai,PM2.5,1/11/2017 1:00,2017,1,11,1,41,�g/m�,1 Hr,Valid
Shanghai,PM2.5,1/11/2017 2:00,2017,1,11,2,41,�g/m�,1 Hr,Valid
Shanghai,PM2.5,1/11/2017 3:00,2017,1,11,3,24,�g/m�,1 Hr,Valid
Shanghai,PM2.5,1/11/2017 4:00,2017,1,11,4,25,�g/m�,1 Hr,Valid
Shanghai,PM2.5,1/11/2017 5:00,2017,1,11,5,31,�g/m�,1 Hr,Valid
Shanghai,PM2.5,1/11/2017 6:00,2017,1,11,6,24,�g/m�,1 Hr,Valid
Shanghai,PM2.5,1/11/2017 7:00,2017,1,11,7,29,�g/m�,1 Hr,Valid
Shanghai,PM2.5,1/11/2017 8:00,2017,1,11,8,38,�g/m�,1 Hr,Valid
Shanghai,PM2.5,1/11/2017 9:00,2017,1,11,9,43,�g/m�,1 Hr,Valid
Shanghai,PM2.5,1/11/2017 10:00,2017,1,11,10,41,�g/m�,1 Hr,Valid
Shanghai,PM2.5,1/11/2017 11:00,2017,1,11,11,37,�g/m�,1 Hr,Valid
Shanghai,PM2.5,1/11/2017 12:00,2017,1,11,12,36,�g/m�,1 Hr,Valid
Shanghai,PM2.5,1/11/2017 13:00,2017,1,11,13,31,�g/m�,1 Hr,Valid
Shanghai,PM2.5,1/11/2017 14:00,2017,1,11,14,27,�g/m�,1 Hr,Valid
Shanghai,PM2.5,1/11/2017 15:00,2017,1,11,15,27,�g/m�,1 Hr,Valid
Shanghai,PM2.5,1/11/2017 16:00,2017,1,11,16,33,�g/m�,1 Hr,Valid
Shanghai,PM2.5,1/11/2017 17:00,2017,1,11,17,37,�g/m�,1 Hr,Valid
Shanghai,PM2.5,1/11/2017 18:00,2017,1,11,18,38,�g/m�,1 Hr,Valid
Shanghai,PM2.5,1/11/2017 19:00,2017,1,11,19,43,�g/m�,1 Hr,Valid
Shanghai,PM2.5,1/11/2017 20:00,2017,1,11,20,54,�g/m�,1 Hr,Valid
Shanghai,PM2.5,1/11/2017 21:00,2017,1,11,21,47,�g/m�,1 Hr,Valid
Shanghai,PM2.5,1/11/2017 22:00,2017,1,11,22,39,�g/m�,1 Hr,Valid
Shanghai,PM2.5,1/11/2017 23:00,2017,1,11,23,35,�g/m�,1 Hr,Valid
Shanghai,PM2.5,1/12/2017 0:00,2017,1,12,0,37,�g/m�,1 Hr,Valid
Shanghai,PM2.5,1/12/2017 1:00,2017,1,12,1,39,�g/m�,1 Hr,Valid
Shanghai,PM2.5,1/12/2017 2:00,2017,1,12,2,43,�g/m�,1 Hr,Valid
Shanghai,PM2.5,1/12/2017 3:00,2017,1,12,3,51,�g/m�,1 Hr,Valid
Shanghai,PM2.5,1/12/2017 4:00,2017,1,12,4,46,�g/m�,1 Hr,Valid
Shanghai,PM2.5,1/12/2017 5:00,2017,1,12,5,50,�g/m�,1 Hr,Valid
Shanghai,PM2.5,1/12/2017 6:00,2017,1,12,6,47,�g/m�,1 Hr,Valid
Shanghai,PM2.5,1/12/2017 7:00,2017,1,12,7,54,�g/m�,1 Hr,Valid
Shanghai,PM2.5,1/12/2017 8:00,2017,1,12,8,51,�g/m�,1 Hr,Valid
Shanghai,PM2.5,1/12/2017 9:00,2017,1,12,9,56,�g/m�,1 Hr,Valid
Shanghai,PM2.5,1/12/2017 10:00,2017,1,12,10,56,�g/m�,1 Hr,Valid
Shanghai,PM2.5,1/12/2017 11:00,2017,1,12,11,54,�g/m�,1 Hr,Valid
Shanghai,PM2.5,1/12/2017 12:00,2017,1,12,12,72,�g/m�,1 Hr,Valid
Shanghai,PM2.5,1/12/2017 13:00,2017,1,12,13,76,�g/m�,1 Hr,Valid
Shanghai,PM2.5,1/12/2017 14:00,2017,1,12,14,89,�g/m�,1 Hr,Valid
Shanghai,PM2.5,1/12/2017 15:00,2017,1,12,15,75,�g/m�,1 Hr,Valid
Shanghai,PM2.5,1/12/2017 16:00,2017,1,12,16,81,�g/m�,1 Hr,Valid
Shanghai,PM2.5,1/12/2017 17:00,2017,1,12,17,68,�g/m�,1 Hr,Valid
Shanghai,PM2.5,1/12/2017 18:00,2017,1,12,18,71,�g/m�,1 Hr,Valid
Shanghai,PM2.5,1/12/2017 19:00,2017,1,12,19,70,�g/m�,1 Hr,Valid
Shanghai,PM2.5,1/12/2017 20:00,2017,1,12,20,68,�g/m�,1 Hr,Valid
Shanghai,PM2.5,1/12/2017 21:00,2017,1,12,21,82,�g/m�,1 Hr,Valid
Shanghai,PM2.5,1/12/2017 22:00,2017,1,12,22,77,�g/m�,1 Hr,Valid
Shanghai,PM2.5,1/12/2017 23:00,2017,1,12,23,83,�g/m�,1 Hr,Valid
Shanghai,PM2.5,1/13/2017 0:00,2017,1,13,0,88,�g/m�,1 Hr,Valid
Shanghai,PM2.5,1/13/2017 1:00,2017,1,13,1,94,�g/m�,1 Hr,Valid
Shanghai,PM2.5,1/13/2017 2:00,2017,1,13,2,89,�g/m�,1 Hr,Valid
Shanghai,PM2.5,1/13/2017 3:00,2017,1,13,3,97,�g/m�,1 Hr,Valid
Shanghai,PM2.5,1/13/2017 4:00,2017,1,13,4,104,�g/m�,1 Hr,Valid
Shanghai,PM2.5,1/13/2017 5:00,2017,1,13,5,101,�g/m�,1 Hr,Valid
Shanghai,PM2.5,1/13/2017 6:00,2017,1,13,6,103,�g/m�,1 Hr,Valid
Shanghai,PM2.5,1/13/2017 7:00,2017,1,13,7,109,�g/m�,1 Hr,Valid
Shanghai,PM2.5,1/13/2017 8:00,2017,1,13,8,112,�g/m�,1 Hr,Valid
Shanghai,PM2.5,1/13/2017 9:00,2017,1,13,9,134,�g/m�,1 Hr,Valid
Shanghai,PM2.5,1/13/2017 10:00,2017,1,13,10,139,�g/m�,1 Hr,Valid
Shanghai,PM2.5,1/13/2017 11:00,2017,1,13,11,-999,�g/m�,1 Hr,Missing
Shanghai,PM2.5,1/13/2017 12:00,2017,1,13,12,-999,�g/m�,1 Hr,Missing
Shanghai,PM2.5,1/13/2017 13:00,2017,1,13,13,102,�g/m�,1 Hr,Valid
Shanghai,PM2.5,1/13/2017 14:00,2017,1,13,14,116,�g/m�,1 Hr,Valid
Shanghai,PM2.5,1/13/2017 15:00,2017,1,13,15,86,�g/m�,1 Hr,Valid
Shanghai,PM2.5,1/13/2017 16:00,2017,1,13,16,66,�g/m�,1 Hr,Valid
Shanghai,PM2.5,1/13/2017 17:00,2017,1,13,17,59,�g/m�,1 Hr,Valid
Shanghai,PM2.5,1/13/2017 18:00,2017,1,13,18,94,�g/m�,1 Hr,Valid
Shanghai,PM2.5,1/13/2017 19:00,2017,1,13,19,111,�g/m�,1 Hr,Valid
Shanghai,PM2.5,1/13/2017 20:00,2017,1,13,20,146,�g/m�,1 Hr,Valid
Shanghai,PM2.5,1/13/2017 21:00,2017,1,13,21,138,�g/m�,1 Hr,Valid
Shanghai,PM2.5,1/13/2017 22:00,2017,1,13,22,112,�g/m�,1 Hr,Valid
Shanghai,PM2.5,1/13/2017 23:00,2017,1,13,23,81,�g/m�,1 Hr,Valid
Shanghai,PM2.5,1/14/2017 0:00,2017,1,14,0,58,�g/m�,1 Hr,Valid
Shanghai,PM2.5,1/14/2017 1:00,2017,1,14,1,56,�g/m�,1 Hr,Valid
Shanghai,PM2.5,1/14/2017 2:00,2017,1,14,2,52,�g/m�,1 Hr,Valid
Shanghai,PM2.5,1/14/2017 3:00,2017,1,14,3,33,�g/m�,1 Hr,Valid
Shanghai,PM2.5,1/14/2017 4:00,2017,1,14,4,27,�g/m�,1 Hr,Valid
Shanghai,PM2.5,1/14/2017 5:00,2017,1,14,5,28,�g/m�,1 Hr,Valid
Shanghai,PM2.5,1/14/2017 6:00,2017,1,14,6,30,�g/m�,1 Hr,Valid
Shanghai,PM2.5,1/14/2017 7:00,2017,1,14,7,32,�g/m�,1 Hr,Valid
Shanghai,PM2.5,1/14/2017 8:00,2017,1,14,8,26,�g/m�,1 Hr,Valid
Shanghai,PM2.5,1/14/2017 9:00,2017,1,14,9,20,�g/m�,1 Hr,Valid
Shanghai,PM2.5,1/14/2017 10:00,2017,1,14,10,20,�g/m�,1 Hr,Valid
Shanghai,PM2.5,1/14/2017 11:00,2017,1,14,11,24,�g/m�,1 Hr,Valid
Shanghai,PM2.5,1/14/2017 12:00,2017,1,14,12,26,�g/m�,1 Hr,Valid
Shanghai,PM2.5,1/14/2017 13:00,2017,1,14,13,20,�g/m�,1 Hr,Valid
Shanghai,PM2.5,1/14/2017 14:00,2017,1,14,14,18,�g/m�,1 Hr,Valid
Shanghai,PM2.5,1/14/2017 15:00,2017,1,14,15,17,�g/m�,1 Hr,Valid
Shanghai,PM2.5,1/14/2017 16:00,2017,1,14,16,16,�g/m�,1 Hr,Valid
Shanghai,PM2.5,1/14/2017 17:00,2017,1,14,17,19,�g/m�,1 Hr,Valid
Shanghai,PM2.5,1/14/2017 18:00,2017,1,14,18,20,�g/m�,1 Hr,Valid
Shanghai,PM2.5,1/14/2017 19:00,2017,1,14,19,20,�g/m�,1 Hr,Valid
Shanghai,PM2.5,1/14/2017 20:00,2017,1,14,20,29,�g/m�,1 Hr,Valid
Shanghai,PM2.5,1/14/2017 21:00,2017,1,14,21,27,�g/m�,1 Hr,Valid
Shanghai,PM2.5,1/14/2017 22:00,2017,1,14,22,30,�g/m�,1 Hr,Valid
Shanghai,PM2.5,1/14/2017 23:00,2017,1,14,23,30,�g/m�,1 Hr,Valid
Shanghai,PM2.5,1/15/2017 0:00,2017,1,15,0,23,�g/m�,1 Hr,Valid
Shanghai,PM2.5,1/15/2017 1:00,2017,1,15,1,21,�g/m�,1 Hr,Valid
Shanghai,PM2.5,1/15/2017 2:00,2017,1,15,2,17,�g/m�,1 Hr,Valid
Shanghai,PM2.5,1/15/2017 3:00,2017,1,15,3,10,�g/m�,1 Hr,Valid
Shanghai,PM2.5,1/15/2017 4:00,2017,1,15,4,14,�g/m�,1 Hr,Valid
Shanghai,PM2.5,1/15/2017 5:00,2017,1,15,5,10,�g/m�,1 Hr,Valid
Shanghai,PM2.5,1/15/2017 6:00,2017,1,15,6,19,�g/m�,1 Hr,Valid
Shanghai,PM2.5,1/15/2017 7:00,2017,1,15,7,11,�g/m�,1 Hr,Valid
Shanghai,PM2.5,1/15/2017 8:00,2017,1,15,8,19,�g/m�,1 Hr,Valid
Shanghai,PM2.5,1/15/2017 9:00,2017,1,15,9,16,�g/m�,1 Hr,Valid
Shanghai,PM2.5,1/15/2017 10:00,2017,1,15,10,12,�g/m�,1 Hr,Valid
Shanghai,PM2.5,1/15/2017 11:00,2017,1,15,11,19,�g/m�,1 Hr,Valid
Shanghai,PM2.5,1/15/2017 12:00,2017,1,15,12,20,�g/m�,1 Hr,Valid
Shanghai,PM2.5,1/15/2017 13:00,2017,1,15,13,13,�g/m�,1 Hr,Valid
Shanghai,PM2.5,1/15/2017 14:00,2017,1,15,14,12,�g/m�,1 Hr,Valid
Shanghai,PM2.5,1/15/2017 15:00,2017,1,15,15,15,�g/m�,1 Hr,Valid
Shanghai,PM2.5,1/15/2017 16:00,2017,1,15,16,24,�g/m�,1 Hr,Valid
Shanghai,PM2.5,1/15/2017 17:00,2017,1,15,17,22,�g/m�,1 Hr,Valid
Shanghai,PM2.5,1/15/2017 18:00,2017,1,15,18,19,�g/m�,1 Hr,Valid
Shanghai,PM2.5,1/15/2017 19:00,2017,1,15,19,24,�g/m�,1 Hr,Valid
Shanghai,PM2.5,1/15/2017 20:00,2017,1,15,20,18,�g/m�,1 Hr,Valid
Shanghai,PM2.5,1/15/2017 21:00,2017,1,15,21,26,�g/m�,1 Hr,Valid
Shanghai,PM2.5,1/15/2017 22:00,2017,1,15,22,27,�g/m�,1 Hr,Valid
Shanghai,PM2.5,1/15/2017 23:00,2017,1,15,23,24,�g/m�,1 Hr,Valid
Shanghai,PM2.5,1/16/2017 0:00,2017,1,16,0,23,�g/m�,1 Hr,Valid
Shanghai,PM2.5,1/16/2017 1:00,2017,1,16,1,26,�g/m�,1 Hr,Valid
Shanghai,PM2.5,1/16/2017 2:00,2017,1,16,2,22,�g/m�,1 Hr,Valid
Shanghai,PM2.5,1/16/2017 3:00,2017,1,16,3,22,�g/m�,1 Hr,Valid
Shanghai,PM2.5,1/16/2017 4:00,2017,1,16,4,20,�g/m�,1 Hr,Valid
Shanghai,PM2.5,1/16/2017 5:00,2017,1,16,5,18,�g/m�,1 Hr,Valid
Shanghai,PM2.5,1/16/2017 6:00,2017,1,16,6,24,�g/m�,1 Hr,Valid
Shanghai,PM2.5,1/16/2017 7:00,2017,1,16,7,21,�g/m�,1 Hr,Valid
Shanghai,PM2.5,1/16/2017 8:00,2017,1,16,8,21,�g/m�,1 Hr,Valid
Shanghai,PM2.5,1/16/2017 9:00,2017,1,16,9,24,�g/m�,1 Hr,Valid
Shanghai,PM2.5,1/16/2017 10:00,2017,1,16,10,26,�g/m�,1 Hr,Valid
Shanghai,PM2.5,1/16/2017 11:00,2017,1,16,11,30,�g/m�,1 Hr,Valid
Shanghai,PM2.5,1/16/2017 12:00,2017,1,16,12,38,�g/m�,1 Hr,Valid